This is the latest recevied weather packets stored in our database for station/object DO3HUM-5. If no packets are shown the sender has not sent any weather packets the latest 10 day(s).
| Time | Temp. | Humidity | Pressure | Rain* | Wind** | Luminosity | Snow |
|---|---|---|---|---|---|---|---|
| 1777622455 | 17.78° C | 49% | 1037.5 hPa | 0 mm | - | - | - |
| 1777621853 | 17.22° C | 48% | 1037.5 hPa | 0 mm | - | - | - |
| 1777621250 | 16.11° C | 53% | 1037.6 hPa | 0 mm | - | - | - |
| 1777620648 | 16.11° C | 51% | 1037.6 hPa | 0 mm | - | - | - |
| 1777620044 | 14.44° C | 52% | 1037.6 hPa | 0 mm | - | - | - |
| 1777618840 | 13.89° C | 53% | 1037.6 hPa | 0 mm | - | - | - |
| 1777618235 | 11.67° C | 56% | 1037.5 hPa | 0 mm | - | - | - |
| 1777617633 | 11.11° C | 59% | 1037.3 hPa | 0 mm | - | - | - |
| 1777617030 | 10.56° C | 63% | 1037.4 hPa | 0 mm | - | - | - |
| 1777616427 | 10° C | 65% | 1037.3 hPa | 0 mm | - | - | - |
| 1777615824 | 10° C | 67% | 1037.4 hPa | 0 mm | - | - | - |
| 1777615221 | 10° C | 67% | 1037.3 hPa | 0 mm | - | - | - |
| 1777614619 | 9.44° C | 68% | 1037.3 hPa | 0 mm | - | - | - |
| 1777614017 | 10° C | 67% | 1037.3 hPa | 0 mm | - | - | - |
| 1777613473 | 10° C | 68% | 1037.3 hPa | 0 mm | - | - | - |
| 1777612870 | 7.78° C | 77% | 1037.3 hPa | 0 mm | - | - | - |
| 1777612267 | 7.22° C | 86% | 1037.1 hPa | 0 mm | - | - | - |
| 1777611062 | 3.33° C | 91% | 1037.2 hPa | 0 mm | - | - | - |
| 1777610459 | 2.78° C | 90% | 1037.2 hPa | 0 mm | - | - | - |
| 1777609856 | 2.78° C | 90% | 1037.1 hPa | 0 mm | - | - | - |
| 1777609253 | 2.78° C | 90% | 1037.1 hPa | 0 mm | - | - | - |
| 1777608651 | 2.78° C | 90% | 1036.9 hPa | 0 mm | - | - | - |
| 1777608048 | 2.78° C | 90% | 1036.8 hPa | 0 mm | - | - | - |
| 1777607444 | 2.78° C | 89% | 1036.8 hPa | 0 mm | - | - | - |
| 1777606843 | 2.78° C | 89% | 1036.8 hPa | 0 mm | - | - | - |
* Rain latest hour (hover to see other rain measurements)
** Current wind speed in m/s (hover to see current wind gust speed)